User: anonymous
Location: Del Oro Observatory
(38.3044°N, 104.8119°W)
Time: 00:23:41
(UTC-06:00)
Language:

Cosmos 1602 Rocket - Orbit

View from above orbital plane
View from above orbital plane
View from above satellite
View from above satellite

Ground track
Ground track

The orbit data is extracted from the following two-line orbital elements,

1 15332U 84105B   14274.78064881  .00000617  00000-0  73056-4 0  7742
2 15332 082.5375 032.6651 0021867 036.1538 075.6939 14.82798127619935
Epoch (UTC): 01 October 2014 18:44:08
Eccentricity: 0.0021867
inclination: 82.5375°
perigee height: 605 km
apogee height: 636 km
right ascension of ascending node: 32.6651°
argument of perigee: 36.1538°
revolutions per day: 14.82798127
mean anomaly at epoch: 75.6939°
orbit number at epoch: 61993

The dashed part of the orbit path shows where the satellite is in the earth's shadow,  

DLR